Location: Igon
(43.1667°N, 0.2333°W)
Time: 21:03:16
(UTC+00:00)

Cosmos 1408 Rocket - Pass Details

Date: 29 November 2020
Orbit: 600 x 631 km, 82.6° (Epoch: 21 January)

Event Time Altitude Azimuth Distance (km) Brightness Sun altitude
Rises 04:54:28 0° 181° (S) 2,909 7.1 -24.3°
Reaches altitude 10° 04:56:42 10° 179° (S) 2,006 6.3 -23.9°
Maximum altitude 05:01:08 71° 96° (E) 670 3.8 -23.1°
Drops below altitude 10° 05:05:35 10° 13° (NNE) 2,014 6.2 -22.3°
Sets 05:07:49 0° 11° (N) 2,923 7.0 -21.9°
